Tracking 22879 objects as of 21-Apr-2021
HD Live streaming from Space Station
objects crossing your sky now

DELTA 1 DEB

Track DELTA 1 DEB now!
10-day predictions


NORAD ID: 7030
Int'l Code: 1973-086W
Perigee: 1,511.5 km
Apogee: 1,653.8 km
Inclination: 102.1 °
Period: 117.7 minutes
Semi major axis: 7953 km
RCS: 0.058 m2 (small)
Launch date: November 6, 1973
Source: United States (US)
Launch site: AIR FORCE WESTERN TEST RANGE (AFWTR)

Note: This is SATELLITE DEBRIS
aabbcc
Your satellite tracking list
Your tracking list is empty




NASA's NSSDC Master Catalog

Two Line Element Set (TLE):
1 07030U 73086W   21111.41158975 -.00000016  00000-0  24396-3 0  9995
2 07030 102.0671 165.5048 0089459 344.8782  27.9947 12.23930530119297
Source of the keplerian elements: AFSPC